Vorticity
nan nan nan nan nan nan nan nan nan nan nan nan nan nan nan nan nan nan nan nan nan nan nan nan nan nan nan nan nan nan nan nan nan nan nan nan nan nan nan nan nan nan nan nan
nan 9 7 7 7 4 4 4 7 9 16 6 3 8 4 5 7 8 8 9 7 7 7 11 8 7 8 7 7 8 8 7 7 3 6 9 10 9 8 10 8 8 9 nan
nan 9 12 6 6 6 7 6 5 13 9 -2 4 10 10 6 7 7 8 10 10 7 8 9 7 8 7 7 7 6 8 7 6 5 4 7 6 9 12 11 8 9 8 nan
nan 9 12 7 6 6 7 5 5 8 -4 16 8 11 16 3 8 8 7 9 10 10 8 6 8 8 7 7 7 7 8 7 7 9 5 10 5 8 8 8 13 10 13 nan
nan 12 8 11 7 7 4 7 6 8 8 9 -1 5 5 20 8 8 9 9 10 10 9 8 8 6 7 9 7 7 8 7 8 8 8 4 9 5 8 8 10 8 9 nan
nan 11 9 8 11 7 5 7 13 9 4 7 11 6 10 11 6 13 10 9 10 11 11 9 7 8 8 7 8 9 8 8 9 8 8 6 7 5 8 9 4 8 7 nan
nan 9 7 12 12 8 8 4 10 12 10 10 12 8 7 -2 15 7 8 13 14 11 10 10 9 7 8 8 7 8 9 8 9 7 9 9 4 8 5 10 5 8 8 nan
nan 13 12 10 9 10 11 2 3 4 4 10 11 6 4 9 2 9 11 10 15 14 10 10 9 7 9 9 8 8 8 8 8 7 8 9 9 5 10 5 8 9 8 nan
nan 8 16 11 10 10 6 8 2 8 3 5 15 8 1 10 14 5 7 9 13 15 12 12 9 7 8 9 9 7 7 9 9 7 8 9 7 8 7 9 8 6 11 nan
nan 15 17 13 10 9 10 10 8 7 7 9 8 9 17 13 7 8 10 8 15 12 14 11 11 8 8 9 8 8 8 7 8 9 8 9 8 8 8 9 9 10 7 nan
nan 8 17 19 10 3 9 7 6 8 7 9 7 14 14 8 16 14 7 10 8 14 15 12 11 10 9 8 9 9 7 6 7 8 8 9 10 9 8 7 9 9 7 nan
nan 6 10 12 14 12 4 10 2 7 8 0 7 14 10 11 7 3 8 14 15 19 11 14 12 11 9 9 9 8 8 7 6 7 9 9 9 10 9 9 8 8 9 nan
nan 5 8 11 13 19 12 7 10 2 7 10 6 2 -2 7 17 14 10 6 7 12 17 12 13 12 11 10 10 10 10 9 7 9 8 8 9 9 9 10 9 7 8 nan
nan 18 5 7 7 13 16 9 7 7 4 6 7 6 12 3 3 6 4 6 11 3 12 14 14 13 13 10 10 11 10 11 10 10 8 8 10 9 10 10 10 8 8 nan
nan 13 13 1 5 13 13 14 10 7 4 3 8 8 6 7 0 7 4 3 9 9 6 11 12 12 13 12 10 10 9 12 11 10 10 10 11 11 11 12 10 7 7 nan
nan 8 12 15 14 4 9 18 14 8 8 10 4 6 8 5 6 11 6 2 3 8 8 13 12 11 13 10 11 11 10 9 11 10 10 11 12 11 11 10 8 5 5 nan
nan 9 12 11 11 13 18 6 5 13 16 10 8 11 8 9 12 9 5 5 5 7 10 14 13 14 12 9 10 11 10 9 10 10 11 12 13 11 11 9 8 8 7 nan
nan 8 7 13 14 9 2 22 28 17 13 11 11 12 11 14 9 9 11 11 10 8 12 15 15 15 14 13 11 11 11 10 11 11 11 12 11 9 9 9 8 9 12 nan
nan 14 9 13 3 2 8 20 15 20 25 25 18 11 5 10 20 20 12 11 13 13 14 16 16 15 13 13 11 13 11 11 11 11 10 12 9 8 8 8 8 10 12 nan
nan 4 10 15 11 7 10 2 9 14 19 15 12 21 19 7 9 26 25 15 11 10 21 22 18 15 10 13 12 10 11 10 10 10 11 10 9 10 10 9 9 11 13 nan
nan 12 8 3 10 5 10 1 13 11 1 8 16 13 25 18 8 8 17 20 18 19 21 15 16 14 12 14 12 11 12 12 11 11 12 11 9 8 10 11 12 12 12 nan
nan 8 11 11 12 13 8 14 3 6 13 14 14 14 29 27 16 11 15 17 21 22 18 13 11 13 14 13 12 12 11 12 13 13 12 10 9 10 12 12 11 11 12 nan
nan 5 10 13 13 17 12 16 14 11 16 19 21 24 26 25 18 18 19 20 21 19 15 15 13 12 12 12 11 10 11 12 13 12 11 10 9 12 14 11 8 9 10 nan
nan 17 12 18 15 8 9 10 10 13 15 16 20 23 18 16 16 16 14 15 13 12 12 12 9 8 11 14 12 12 13 11 10 11 11 9 10 11 11 12 9 9 12 nan
nan 23 16 8 12 9 8 11 10 10 13 8 8 14 17 16 11 9 9 11 10 10 12 11 10 9 10 11 13 13 12 10 9 9 11 10 10 9 6 6 13 15 9 nan
nan nan nan nan nan nan nan nan nan nan nan nan nan nan nan nan nan nan nan nan nan nan nan nan nan nan nan nan nan nan nan nan nan nan nan nan nan nan nan nan nan nan nan nan
CAPE
0 0 0 0 0 0 14 61 44 46 27 81 174 145 266 455 413 257 90 131 400 572 718 761 948 943 924 1107 1546 2155 2546 3669 2715 2157 2656 2243 1745 1969 1740 1475 2738 2717 2363 2288
0 0 0 0 0 0 0 24 66 46 42 29 114 203 222 773 536 380 231 123 153 337 489 780 998 1012 939 1304 1888 2892 3182 3927 3341 2353 2828 2629 2276 1535 1328 1319 2334 2256 2843 2684
0 0 0 0 0 0 0 8 43 71 145 77 134 129 155 214 668 588 305 263 198 200 229 690 891 1063 1124 1521 2272 3227 4144 4352 3957 3775 2998 3071 2752 2206 2411 1826 2020 2385 2435 2398
0 0 0 0 0 0 0 0 16 66 49 112 41 171 162 120 206 640 609 432 305 255 287 450 931 1195 1160 1567 1901 3340 4289 4423 4328 4312 3119 3649 2151 1484 924 1173 1152 2037 2721 2501
0 0 0 0 0 0 0 0 15 46 140 135 72 117 99 59 133 259 619 618 433 268 388 452 794 1112 1136 1321 1658 2658 4348 4651 4548 4309 3888 2512 2768 1362 1312 885 3074 1768 3025 1927
0 0 0 0 0 0 0 0 18 40 83 112 156 117 214 52 116 170 284 633 712 550 375 750 677 918 1084 1248 1532 2456 4356 4776 4841 4501 4093 4090 3861 3036 1431 1550 1805 1602 1242 1772
0 0 0 0 0 0 0 0 8 44 66 42 89 152 204 221 70 73 75 124 557 823 510 622 989 1003 1331 1802 2123 2640 4183 4853 4790 4193 4376 4227 3909 4169 3324 2723 2042 1594 680 861
0 0 0 0 0 0 0 0 0 17 39 41 50 66 86 95 41 55 69 33 122 644 747 418 783 1276 1846 1819 2627 2859 3753 4680 4831 4568 4725 4750 4714 2860 2494 2989 2162 1363 964 741
0 0 0 0 0 0 0 0 0 24 67 57 53 54 23 32 75 62 28 9 27 285 679 609 494 861 1530 1655 2436 2919 3787 4357 4577 3631 4870 4859 4729 4552 2696 3704 3685 2136 2437 846
0 0 0 0 0 0 0 0 0 7 74 71 75 68 62 53 8 5 31 14 12 51 657 662 485 625 1252 1245 1881 2780 3557 4249 4017 4185 4459 4275 4420 4611 4279 4372 4080 3445 2808 1857
0 0 0 0 0 0 0 0 0 1 29 37 70 74 53 59 38 0 3 5 37 58 491 786 567 551 845 918 1472 1980 2745 3842 4045 4184 4125 4303 3928 4058 4307 4090 3913 3729 2947 2798
0 0 0 0 0 0 0 0 0 25 35 21 72 71 29 8 3 4 14 18 31 77 290 652 726 522 650 1262 1077 1293 1712 2069 3138 3961 4437 4421 4420 4100 3974 4155 4101 3984 3537 2901
0 0 0 0 0 0 0 0 0 0 12 132 44 4 23 11 12 43 17 0 6 82 119 589 660 892 888 1054 1305 1056 1623 1503 2028 3433 3525 4142 3912 4201 4041 4123 4123 3926 3778 2884
0 0 0 0 0 0 0 0 0 0 0 7 11 47 87 65 10 1 0 0 8 58 493 535 832 1285 1350 1521 1763 1695 1565 1289 1724 2408 2764 3939 4234 4034 3825 4120 3908 3373 3141 2492
0 0 0 0 0 3 0 0 0 0 0 1 4 40 37 83 70 15 3 0 0 1 369 968 1201 2285 2469 2198 2452 2362 1978 2363 2186 3204 3068 4028 4453 4081 3903 3977 3938 3153 2614 2010
0 15 18 0 0 0 2 3 0 0 0 0 0 1 18 17 86 34 0 0 0 0 15 937 1442 1821 3052 2824 3157 3048 2942 3022 3070 3899 3782 4362 4646 4294 3901 3835 3346 2302 2179 1548
38 70 328 161 66 93 72 0 0 1 1 0 0 0 0 15 64 97 16 0 2 64 94 478 1373 1834 2511 2507 3440 3417 3635 3390 3787 4306 4408 4780 4821 4254 3346 3105 2694 2159 1819 1510
38 66 65 143 330 239 0 99 58 30 22 13 8 0 0 15 33 50 13 1 66 174 171 229 1086 1823 2730 2288 2308 2919 3085 4095 4370 4529 4541 4758 4618 3683 2660 2195 2057 1955 2025 1846
18 54 79 281 406 273 221 541 440 500 195 29 24 1 0 1 2 16 0 0 2 27 224 432 1392 1839 3427 3038 3569 3734 3439 3895 4181 4002 4551 4685 4048 3286 2443 1826 1785 2185 2130 2330
1 14 207 450 266 326 171 700 508 402 211 15 45 49 0 3 65 11 1 30 408 462 246 860 1648 2098 2744 3289 2763 3344 2911 3469 3936 4035 4265 4573 3732 2984 2198 1835 1891 2193 2286 1915
0 3 0 78 216 179 845 502 547 429 417 1114 844 628 308 20 61 685 640 432 523 565 1380 2020 2028 2883 3243 3132 2538 3197 3071 3062 3100 3221 3339 3536 2930 2524 1943 2056 2288 2019 1883 1455
0 15 24 90 142 183 549 556 575 1070 886 1008 993 864 1062 48 631 747 858 939 1010 1215 1600 1712 2228 2590 2520 2879 3082 3368 3566 3724 3908 3752 3447 2907 2458 2165 2157 2361 1828 1552 1575 1410
111 18 38 101 268 916 714 891 840 831 892 1002 1071 962 895 1028 938 1059 1290 1534 1626 1624 1671 1537 1503 2454 2458 3096 3318 3693 4535 4370 4062 3919 3065 2549 2480 2395 2533 2292 2048 1733 1558 1211
173 147 324 552 662 586 672 599 591 621 705 759 1003 1079 1138 1215 1152 1050 931 891 844 965 1290 1339 1598 2156 2697 3180 2822 3591 3528 3599 3661 2900 2466 2345 2275 2199 2173 2145 1437 1109 885 1051
21 372 481 767 533 331 182 231 230 309 432 419 609 830 1245 1144 1099 1195 1517 1596 1197 1141 1161 1419 1705 2136 2440 2832 3240 2973 3261 3388 2756 2429 2309 2740 2313 2127 2020 997 831 1622 1355 1059
11 29 468 521 560 298 0 0 2 0 0 1 21 105 265 634 718 1122 1378 1399 1370 1375 1458 1773 1733 2224 2559 2762 2890 2829 2892 2940 3071 2564 2560 2299 2029 2250 1595 444 4 0 0 1